Regional Weather Roundup
Issued by NWS

Home | Current Version | Previous Version | Text Only | Print | Product List | Glossary Off
Versions: 1 2 3 4 5 6 7 8 9 10 11 12 13 14 15 16 17 18 19 20 21 22 23 24 25 26 27 28 29 30 31 32 33 34 35 36 37 38 39 40 41 42 43 44 45 46 47 48 49 50

000
ASUS43 KLSX 032359
RWRMO

WEATHER SUMMARY FOR MISSOURI
NATIONAL WEATHER SERVICE SPRINGFIELD MO
600 PM CST TUE MAR 03 2015

NOTE: "FAIR" INDICATES FEW OR NO CLOUDS BELOW 12,000 FEET WITH NO
       SIGNIFICANT WEATHER AND/OR OBSTRUCTIONS TO VISIBILITY.
       CURRENT SKY AND/OR WEATHER CONDITIONS ARE NOT AVAILABLE FOR
       CHILLICOTHE AND FARMINGTON.

MOZ001>031-035>038-043-044-053-054-040100-
...NORTHERN AND WESTERN MISSOURI...

CITY           SKY/WX    TMP DP  RH WIND       PRES   REMARKS
KANSAS CTY INT CLOUDY    38  28  67 N13       29.90R WCI  30
6HR MIN TEMP:  38; 6HR MAX TEMP:  46;

KANSAS C DTWN  CLOUDY    41  28  60 N8        29.90R
6HR MIN TEMP:  41; 6HR MAX TEMP:  49;

LEE`S SUMMIT   CLOUDY    38  29  70 N9        29.90R
6HR MIN TEMP:  38; 6HR MAX TEMP:  47;

ST JOSEPH      CLOUDY    35  25  66 N15       29.93R WCI  25
6HR MIN TEMP:  35; 6HR MAX TEMP:  42;

CHILLICOTHE      N/A     37  28  70 NW5       29.92R
6HR MIN TEMP:  37; 6HR MAX TEMP:  44;


$$
MOZ066>068-077>081-088>096-101>105-040100-
...SOUTHWEST MISSOURI...

CITY           SKY/WX    TMP DP  RH WIND       PRES   REMARKS
SPRINGFIELD    CLOUDY    44  40  85 NW8       29.84S
6HR MIN TEMP:  44; 6HR MAX TEMP:  51; 6HR PCP: TRACE;

JOPLIN         CLOUDY    46  43  89 CALM      29.87R
6HR MIN TEMP:  46; 6HR MAX TEMP:  48; 6HR PCP: TRACE;


$$
MOZ032>034-039>042-045>050-055>058-069>072-040100-
...CENTRAL MISSOURI...

CITY           SKY/WX    TMP DP  RH WIND       PRES   REMARKS
COLUMBIA       LGT RAIN  39  38  96 NW10      29.87R FOG
6HR MIN TEMP:  39; 6HR MAX TEMP:  45; 6HR PCP: TRACE;

JEFFERSON CITY CLOUDY    46  39  76 W8        29.87R
6HR MIN TEMP:  46; 6HR MAX TEMP:  49;

ROLLA          LGT RAIN  43  39  86 W10       29.85R
6HR MIN TEMP:  43; 6HR MAX TEMP:  47; 6HR PCP: TRACE;

SEDALIA        CLOUDY    39  34  82 NW10      29.90R HAZE
6HR MIN TEMP:  39; 6HR MAX TEMP:  44; 6HR PCP: TRACE;

OSAGE BEACH    CLOUDY    46  39  76 CALM      29.86R

$$
MOZ051-052-059>065-040100-
...EAST CENTRAL MISSOURI...

CITY           SKY/WX    TMP DP  RH WIND       PRES   REMARKS
ST LOUIS INTL  CLOUDY    43  38  82 W5        29.84R
6HR MIN TEMP:  43; 6HR MAX TEMP:  48; 6HR PCP: TRACE;

SPIRIT OF STL  CLOUDY    43  39  86 CALM      29.85R
6HR MIN TEMP:  40; 6HR MAX TEMP:  47; 6HR PCP: TRACE;

ST CHARLES     CLOUDY    41  37  86 W9        29.85R
6HR MIN TEMP:  36; 6HR MAX TEMP:  42;


$$
MOZ072>076-082>087-097>100-106>115-040100-
...SOUTH CENTRAL AND SOUTHEAST MISSOURI...

CITY           SKY/WX    TMP DP  RH WIND       PRES   REMARKS
CAPE GIRARDEAU LGT RAIN  39  39 100 N5        29.86S VSB 1/4
6HR MIN TEMP:  38; 6HR MAX TEMP:  41; 6HR PCP:  0.25;

FARMINGTON     CLOUDY    45  43  93 W3        29.87R VSB 1/2
6HR MIN TEMP:  41; 6HR MAX TEMP:  48;

POPLAR BLUFF   LGT RAIN  43  40  89 S7        29.84S FOG
6HR MIN TEMP:  38; 6HR MAX TEMP:  43; 6HR PCP:  0.03;

WEST PLAINS    LGT RAIN  48  46  93 CALM      29.84R VSB 1/4
6HR MIN TEMP:  46; 6HR MAX TEMP:  52; 6HR PCP:  0.01;


$$


USA.gov is the U.S. government's official web portal to all federal, state and local government web resources and services.